Simultaneous Nadir Overpasses (SNOs) Predictions

Prediction of SNOs between GOES-17 and METOP-C Satellite Orbit:

Table of predicted SNOs for the next 14.0 days since TLE Epoch: 3/12/2022
Index Date Time (GOES-17) GOES-17 Lat,Lon METOP-C Lat,Lon Distance(km) Time Diff (sec)
1 03/13/2022 06:59:05 -0.04,-137.20 -0.98,-141.42 480.84 80
2 03/14/2022 06:35:45 -0.03,-137.20 0.12,-136.43 87.76 80
3 03/15/2022 18:54:39 0.03,-137.20 0.87,-141.00 433.03 80
4 03/16/2022 18:36:39 0.03,-137.19 -0.22,-136.00 135.38 80
5 03/18/2022 06:55:39 -0.03,-137.18 -0.77,-140.60 389.44 80
6 03/19/2022 06:32:20 -0.03,-137.17 0.32,-135.61 178.62 80
7 03/20/2022 18:51:12 0.03,-137.16 0.73,-140.16 343.36 80
8 03/21/2022 18:33:14 0.03,-137.14 -0.43,-135.18 224.24 80
9 03/23/2022 06:52:13 -0.03,-137.12 -0.61,-139.77 302.05 80
10 03/24/2022 06:28:54 -0.03,-137.10 0.49,-134.77 264.76 80
11 03/25/2022 18:47:47 0.02,-137.06 0.51,-139.34 259.31 80
